User: anonymous   Login
Location: Montr�al
(45.5000°N, 73.5830°W)
Time: 12:00:33
(UTC-05:00)
Language:

Cosmos 2369 - Orbit

View from above orbital plane
View from above orbital plane
View from above satellite
View from above satellite

Ground track
Ground track

The orbit data is extracted from the following two-line orbital elements,

1 26069U 00006A   17349.40561208 -.00000256  00000-0 -11092-3 0  9990
2 26069  70.9950 339.4360 0013719 306.6906  53.2955 14.13359701921728
Epoch (UTC): 15 December 2017 09:44:04
Eccentricity: 0.0013719
inclination: 70.9950°
perigee height: 838 km
apogee height: 858 km
right ascension of ascending node: 339.4360°
argument of perigee: 306.6906°
revolutions per day: 14.13359701
mean anomaly at epoch: 53.2955°
orbit number at epoch: 92172

The dashed part of the orbit path shows where the satellite is in the earth's shadow,  

DLR